When you browse on this site, cookies collect data to enhance your experience and personalize the content and advertising you see.
Visit our Privacy Policy to learn more. By continuing to use the site, you agree to this use of cookies and data.
  • In Sweden
  • List of Countries
  • For 7 days
  • Water Temperature
  • Satellite Maps
  • Weather Map
  • Weather Widgets
  • user-avatar
    Login

    Hourly Weather Billingham

    Today, 24 June, Monday

    Time Temperature Precipitation Wind Pressure Humidity
    00:00 +13°C° 0 mm 3 mps 762 mmHg 94%
    01:00 +13°C° 1.1 mm 4 mps 762 mmHg 95%
    02:00 +13°C° 1.1 mm 4 mps 761 mmHg 97%
    03:00 +13°C° 1.1 mm 4 mps 761 mmHg 98%
    04:00 +14°C° 0.7 mm 4 mps 761 mmHg 98%
    05:00 +14°C° 0.7 mm 3 mps 760 mmHg 98%
    06:00 +16°C° 0.7 mm 3 mps 760 mmHg 98%
    07:00 +16°C° 0.2 mm 3 mps 760 mmHg 97%
    08:00 +17°C° 0.2 mm 3 mps 760 mmHg 96%
    09:00 +17°C° 0.2 mm 3 mps 760 mmHg 96%
    10:00 +18°C° 0 mm 3 mps 760 mmHg 94%
    11:00 +19°C° 0 mm 2 mps 760 mmHg 92%
    12:00 +19°C° 0 mm 2 mps 760 mmHg 90%
    13:00 +19°C° 0.3 mm 2 mps 760 mmHg 90%
    14:00 +20°C° 0.3 mm 2 mps 760 mmHg 89%
    15:00 +20°C° 0.3 mm 2 mps 760 mmHg 89%
    16:00 +20°C° 0.2 mm 2 mps 760 mmHg 90%
    17:00 +19°C° 0.2 mm 2 mps 760 mmHg 90%
    18:00 +19°C° 0.2 mm 2 mps 761 mmHg 91%
    19:00 +18°C° 0 mm 2 mps 761 mmHg 93%
    20:00 +17°C° 0 mm 2 mps 762 mmHg 94%
    21:00 +16°C° 0 mm 2 mps 762 mmHg 95%
    22:00 +16°C° 0 mm 2 mps 762 mmHg 96%
    23:00 +16°C° 0 mm 3 mps 763 mmHg 96%

    Tomorrow, 25 June, Tuesday

    Time Temperature Precipitation Wind Pressure Humidity
    00:00 +16°C° 0 mm 3 mps 763 mmHg 96%
    01:00 +14°C° 0 mm 3 mps 763 mmHg 96%
    02:00 +14°C° 0 mm 4 mps 763 mmHg 95%
    03:00 +14°C° 0 mm 4 mps 763 mmHg 95%
    04:00 +14°C° 0.1 mm 4 mps 763 mmHg 95%
    05:00 +14°C° 0.1 mm 4 mps 763 mmHg 95%
    06:00 +14°C° 0.1 mm 4 mps 763 mmHg 95%
    07:00 +13°C° 0.9 mm 4 mps 763 mmHg 95%
    08:00 +13°C° 0.9 mm 4 mps 764 mmHg 96%
    09:00 +13°C° 0.9 mm 4 mps 764 mmHg 97%
    10:00 +13°C° 0.2 mm 6 mps 764 mmHg 95%
    11:00 +13°C° 0.2 mm 6 mps 764 mmHg 95%
    12:00 +13°C° 0.2 mm 6 mps 764 mmHg 94%
    13:00 +13°C° 0 mm 6 mps 764 mmHg 94%
    14:00 +13°C° 0 mm 6 mps 765 mmHg 94%
    15:00 +14°C° 0 mm 6 mps 765 mmHg 93%
    16:00 +13°C° 0 mm 6 mps 765 mmHg 93%
    17:00 +13°C° 0 mm 5 mps 765 mmHg 94%
    18:00 +13°C° 0 mm 5 mps 765 mmHg 94%
    19:00 +13°C° 0 mm 5 mps 766 mmHg 94%
    20:00 +13°C° 0 mm 5 mps 766 mmHg 94%
    21:00 +13°C° 0 mm 5 mps 767 mmHg 94%
    22:00 +13°C° 0 mm 5 mps 767 mmHg 93%
    23:00 +12°C° 0 mm 5 mps 768 mmHg 93%

    Day after tomorrow, 26 June, Wednesday

    Time Temperature Precipitation Wind Pressure Humidity
    00:00 +12°C° 0 mm 5 mps 768 mmHg 92%
    01:00 +12°C° 0 mm 5 mps 768 mmHg 92%
    02:00 +12°C° 0 mm 5 mps 768 mmHg 91%
    03:00 +12°C° 0 mm 5 mps 768 mmHg 91%
    04:00 +12°C° 0 mm 5 mps 768 mmHg 91%
    05:00 +12°C° 0 mm 5 mps 769 mmHg 91%
    06:00 +12°C° 0 mm 5 mps 769 mmHg 91%
    07:00 +13°C° 0 mm 5 mps 770 mmHg 89%
    08:00 +13°C° 0 mm 5 mps 770 mmHg 87%
    09:00 +13°C° 0 mm 5 mps 770 mmHg 85%
    10:00 +14°C° 0 mm 5 mps 770 mmHg 84%
    11:00 +14°C° 0 mm 5 mps 771 mmHg 82%
    12:00 +15°C° 0 mm 5 mps 771 mmHg 80%
    13:00 +15°C° 0 mm 6 mps 771 mmHg 79%
    14:00 +15°C° 0 mm 6 mps 771 mmHg 77%
    15:00 +16°C° 0 mm 6 mps 771 mmHg 76%
    16:00 +15°C° 0 mm 5 mps 771 mmHg 76%
    17:00 +14°C° 0 mm 5 mps 771 mmHg 77%
    18:00 +14°C° 0 mm 4 mps 771 mmHg 77%
    19:00 +12°C° 0 mm 3 mps 771 mmHg 81%
    20:00 +11°C° 0 mm 3 mps 772 mmHg 84%
    21:00 +10°C° 0 mm 2 mps 772 mmHg 88%
    22:00 +9°C° 0 mm 2 mps 772 mmHg 87%
    23:00 +9°C° 0 mm 2 mps 772 mmHg 87%

    27 June, Thursday

    Time Temperature Precipitation Wind Pressure Humidity
    00:00 +9°C° 0 mm 1 mps 772 mmHg 86%
    01:00 +9°C° 0 mm 1 mps 772 mmHg 84%
    02:00 +9°C° 0 mm 1 mps 772 mmHg 83%
    03:00 +9°C° 0 mm 1 mps 772 mmHg 81%
    04:00 +10°C° 0 mm 1 mps 771 mmHg 79%
    05:00 +11°C° 0 mm 1 mps 771 mmHg 76%
    06:00 +12°C° 0 mm 1 mps 771 mmHg 74%
    07:00 +14°C° 0 mm 1 mps 771 mmHg 70%
    08:00 +16°C° 0 mm 1 mps 771 mmHg 67%
    09:00 +18°C° 0 mm 1 mps 771 mmHg 63%
    10:00 +18°C° 0 mm 2 mps 771 mmHg 63%
    11:00 +18°C° 0 mm 2 mps 771 mmHg 63%
    12:00 +19°C° 0 mm 3 mps 771 mmHg 62%
    13:00 +19°C° 0 mm 3 mps 770 mmHg 64%
    14:00 +19°C° 0 mm 3 mps 770 mmHg 65%
    15:00 +19°C° 0 mm 4 mps 770 mmHg 67%
    16:00 +18°C° 0 mm 3 mps 770 mmHg 71%
    17:00 +17°C° 0 mm 3 mps 769 mmHg 76%
    18:00 +16°C° 0 mm 3 mps 769 mmHg 81%
    19:00 +14°C° 0 mm 3 mps 769 mmHg 86%
    20:00 +13°C° 0 mm 2 mps 769 mmHg 90%
    21:00 +12°C° 0 mm 2 mps 769 mmHg 95%
    22:00 +10°C° 0 mm 2 mps 769 mmHg 96%
    23:00 +11°C° 0 mm 1 mps 769 mmHg 96%

    28 June, Friday

    Time Temperature Precipitation Wind Pressure Humidity
    00:00 +11°C° 0 mm 1 mps 769 mmHg 97%
    01:00 +11°C° 0 mm 1 mps 769 mmHg 97%
    02:00 +11°C° 0 mm 1 mps 769 mmHg 97%
    03:00 +11°C° 0 mm 1 mps 768 mmHg 97%
    04:00 +12°C° 0 mm 1 mps 768 mmHg 95%
    05:00 +12°C° 0 mm 2 mps 768 mmHg 94%
    06:00 +13°C° 0 mm 2 mps 768 mmHg 93%
    07:00 +14°C° 0 mm 2 mps 768 mmHg 89%
    08:00 +15°C° 0 mm 2 mps 767 mmHg 85%
    09:00 +16°C° 0 mm 2 mps 767 mmHg 81%
    10:00 +18°C° 0 mm 3 mps 767 mmHg 78%
    11:00 +19°C° 0 mm 3 mps 767 mmHg 75%
    12:00 +20°C° 0 mm 4 mps 766 mmHg 72%
    13:00 +20°C° 0 mm 4 mps 766 mmHg 72%
    14:00 +20°C° 0 mm 4 mps 765 mmHg 72%
    15:00 +20°C° 0 mm 4 mps 765 mmHg 71%
    16:00 +20°C° 0 mm 4 mps 764 mmHg 73%
    17:00 +19°C° 0 mm 4 mps 764 mmHg 75%
    18:00 +19°C° 0 mm 3 mps 764 mmHg 76%
    19:00 +17°C° 0 mm 3 mps 764 mmHg 79%
    20:00 +16°C° 0 mm 3 mps 763 mmHg 82%
    21:00 +13°C° 0 mm 3 mps 763 mmHg 85%
    22:00 +13°C° 0 mm 3 mps 763 mmHg 86%
    23:00 +12°C° 0 mm 3 mps 762 mmHg 87%

    29 June, Saturday

    Time Temperature Precipitation Wind Pressure Humidity
    00:00 +12°C° 0 mm 2 mps 762 mmHg 88%
    01:00 +12°C° 0 mm 3 mps 761 mmHg 87%
    02:00 +12°C° 0 mm 3 mps 760 mmHg 86%
    03:00 +12°C° 0 mm 3 mps 760 mmHg 85%
    04:00 +13°C° 0 mm 3 mps 759 mmHg 85%
    05:00 +14°C° 0 mm 3 mps 759 mmHg 85%
    06:00 +15°C° 0 mm 4 mps 758 mmHg 85%
    07:00 +17°C° 0.4 mm 3 mps 758 mmHg 86%
    08:00 +17°C° 0.4 mm 3 mps 757 mmHg 88%
    09:00 +18°C° 0.4 mm 3 mps 757 mmHg 89%
    10:00 +20°C° 0.3 mm 3 mps 757 mmHg 86%
    11:00 +21°C° 0.3 mm 3 mps 756 mmHg 82%
    12:00 +24°C° 0.3 mm 3 mps 756 mmHg 79%
    13:00 +23°C° 0 mm 4 mps 756 mmHg 75%
    14:00 +23°C° 0 mm 5 mps 756 mmHg 71%
    15:00 +23°C° 0 mm 6 mps 756 mmHg 66%
    16:00 +22°C° 0 mm 6 mps 756 mmHg 69%
    17:00 +21°C° 0 mm 5 mps 755 mmHg 72%
    18:00 +20°C° 0 mm 5 mps 755 mmHg 75%
    19:00 +19°C° 0 mm 5 mps 756 mmHg 79%
    20:00 +16°C° 0 mm 5 mps 756 mmHg 83%
    21:00 +15°C° 0 mm 5 mps 756 mmHg 87%
    22:00 +14°C° 0 mm 5 mps 756 mmHg 88%
    23:00 +14°C° 0 mm 5 mps 756 mmHg 89%
    Show more